724  
ASUS41 KPHI 241610  
RWRPHI  
 
REGIONAL WEATHER ROUNDUP  
NATIONAL WEATHER SERVICE MOUNT HOLLY NJ  
1200 PM EDT FRI OCT 24 2014  
 
NOTE: "FAIR" INDICATES FEW OR NO CLOUDS BELOW 12,000 FEET WITH NO  
SIGNIFICANT WEATHER AND/OR S TO VISIBILITY
.  
 
* = STATION DOES NOT REPORT PRECIPITATION (E.G. RAIN, SNOW, ETC.)  
OR FOG.
 
 
NJZ015>026-241700-  
SOUTHERN NEW JERSEY  
 
CITY SKY/WX TMP DP RH WIND PRES REMARKS
 
POMONA PTSUNNY 62 46 55 NW13 29.85F  
RIO GRANDE* PTSUNNY 61 45 55 NW9G16 29.89S  
MILLVILLE MOSUNNY 63 46 54 NW15 29.87S  
WRIGHTSTOWN MOSUNNY 59 45 59 NW12 29.83F  
MOUNT HOLLY MOSUNNY 61 44 53 NW17G24 29.85F  
TRENTON MOSUNNY 62 43 49 NW15G23 29.84F  
 

 
NJZ001>014-241700-  
NORTHERN NEW JERSEY  
 
CITY SKY/WX TMP DP RH WIND PRES REMARKS
 
SUSSEX CLOUDY 59 44 57 N12G18 29.84F  
ANDOVER* N/A 58 44 60 N8G18 29.84F  
MORRISTOWN PTSUNNY 57 45 62 N12G18 29.84F  
NEWARK PTSUNNY 60 43 53 N18G29 29.82F  
TETERBORO CLOUDY 57 42 57 NW9 29.81S  
CALDWELL CLOUDY 56 41 57 NW8 29.83F  
SOMERVILLE SUNNY 63 43 48 W9G17 29.82F  
ALLAIRE* PTSUNNY 57 43 58 NW21 29.82F  
TOMS RIVER* CLOUDY 57 45 62 N12G20 29.84S  
 

 
PAZ043-044-047-054-055-060>062-066>071-241700-  
EASTERN PENNSYLVANIA  
 
CITY SKY/WX TMP DP RH WIND PRES REMARKS
 
PHILADELPHIA MOSUNNY 65 44 46 NW14 29.87F  
NORTH PHILA N/A 65 42 43 MISG 29.87F  
BLUE BELL SUNNY 64 45 48 NW10G18 29.85F  
DOYLESTOWN MOSUNNY 62 44 51 NW14G20 29.85F  
QUAKERTOWN* MOSUNNY 63 45 51 NW12G21 29.87S  
POTTSTOWN SUNNY 64 44 48 NW14G22 29.88F  
LANCASTER MOSUNNY 63 44 50 NW15G22 29.92R  
COATESVILLE MOSUNNY 63 46 55 N21G29 29.90S  
READING MOSUNNY 63 43 48 N16G25 29.89S  
ALLENTOWN SUNNY 63 42 46 N23G33 29.86F  
MOUNT POCONO MOSUNNY 54 42 64 NW18G30 29.85F  
HAZLETON PTSUNNY 57 43 58 NW15G28 29.92S  
WILKES BARRE SUNNY 60 41 49 N17G26 29.89F  
 

 
DEZALL-MDZ008-012-015-019-020-241700-  
DELAWARE AND EASTERN MARYLAND  
 
CITY SKY/WX TMP DP RH WIND PRES REMARKS
 
WILMINGTON SUNNY 65 44 46 N21G28 29.89F  
DOVER SUNNY 64 46 53 NW21G26 29.87S  
GEORGETOWN MOSUNNY 64 45 49 NW9G21 29.90F  
PATUXENT MOSUNNY 63 44 50 NW17G25 29.95S  
OCEAN CITY MOSUNNY 64 47 53 NW21G26 29.89F  
WALLOPS ISLAND MOSUNNY 64 47 53 N15G22 29.92S  
CAMBRIDGE MOSUNNY 63 45 51 NW14G20 29.92F  
SALISBURY MOSUNNY 66 46 48 NW16G23 29.91S  
 

 
PAZ001-021-NYZ056-072-MDZ011-DCZ001-241700-  
OTHER NEARBY LOCATIONS  
 
CITY SKY/WX TMP DP RH WIND PRES REMARKS
 
HARRISBURG SUNNY 63 41 44 NW17 29.92F  
STATE COLLEGE SUNNY 57 36 44 NW12G17 29.99F  
WILLIAMSPORT SUNNY 64 39 39 NW9G17 29.92F  
BINGHAMTON SUNNY 55 40 56 NW15G25 29.90S  
NEW YORK CITY PTSUNNY 57 41 55 MISG 29.84S  
BALTIMORE NOT AVBL  
WASHINGTON DC CLOUDY 64 43 46 NW9 29.98F  
 

 
 
CLICK HERE TO GO TO PREVIOUS BULLETINS.

The Nexlab PA Page
The Nexlab NJ Page
The Nexlab DE Page
The Nexlab MD Page Main Text Page